Location: Cannifist
(18.2333°N, 63.0167°W)
Time: 20:52:33
(UTC+00:00)

FALCON 9 R/B - Pass Details

Date: 27 February 2020
Orbit: 287 x 10153 km, 34.5° (Epoch: 09 April)

Event Time Altitude Azimuth Distance (km) Brightness Sun altitude
Rises 22:23:23 0° 293° (WNW) 12,071 9.2 -2.2°
Reaches altitude 10° 22:36:53 10° 299° (WNW) 8,974 8.4 -5.4°
Maximum altitude 23:00:14 52° 11° (NNE) 2,130 4.1 -10.9°
Enters shadow 23:05:39 16° 85° (E) 2,414 3.9 -12.2°
